[[{"header":{"parameterUnit":"m.s-1","parameterCategory":1,"la1":30.2992,"la2":30.254,"lo1":-89.0895,"lo2":-89.0443,"dy":0.0025,"dx":0.0025,"nx":19,"ny":19,"refTime":"2026-04-22T09:00:00:Z","depth":0,"parameterNumber":2,"parameterNumberName":"U-component_of_WINDS"},"data":[0,0,0,-2.9538,-2.954,-2.963,-2.9631,-2.9747,-2.9748,0,0,0,0,0,0,0,0,0,0,0,-2.9513,-2.9514,-2.9538,-2.954,-2.963,-2.9631,-2.9747,-2.9748,0,0,0,0,0,0,0,0,0,0,0,-2.9513,-2.9514,-2.9515,-2.9541,-2.963,-2.9631,-2.9746,-2.9678,0,0,0,0,0,0,0,0,0,0,-2.959,-2.9569,-2.9514,-2.9515,-2.9541,-2.963,-2.9631,-2.9674,-2.9682,-2.9707,0,-2.9731,0,-2.9741,-2.9756,-2.9756,0,0,0,-2.9539,-2.9563,-2.9586,-2.9515,-2.9542,-2.963,-2.9589,-2.9679,-2.9687,-2.9717,-2.9732,-2.9736,-2.9743,-2.9757,-2.9757,-2.9909,-2.991,0,0,-2.9534,-2.953,-2.958,-2.9591,-2.9579,-2.9586,-2.9592,-2.9684,-2.97,-2.9733,-2.9739,-2.9745,-2.9757,-2.9758,-2.9908,-2.9909,0,0,0,-2.9521,-2.9527,-2.9547,-2.9587,-2.9603,-2.9589,-2.9596,-2.9696,-2.9703,-2.974,-2.9746,-2.9758,-2.9759,-2.9907,-2.9909,-2.9944,0,0,0,-2.9517,-2.9519,-2.9545,-2.9544,-2.9601,-2.9651,-2.9605,-2.9696,-2.9707,-2.9746,-2.9758,-2.9761,-2.9907,-2.9908,-2.9941,-2.9961,0,0,0,-2.9507,-2.9518,-2.9532,-2.9544,-2.9582,-2.9649,-2.9662,-2.9699,-2.9711,-2.9756,-2.9761,-2.9906,-2.9908,-2.9939,-2.9957,-2.9999,0,0,0,-2.9494,-2.9562,-2.9532,-2.961,-2.9582,-2.9671,-2.9661,-2.9728,-2.9771,-2.9759,-2.9907,-2.9908,-2.9938,-2.9954,-2.9996,-3.0033,-3.0049,0,0,-2.9577,-2.9572,-2.9618,-2.9594,-2.9688,-2.9658,-2.9757,-2.9799,-2.9806,-2.9874,-2.9878,-2.9942,-2.9956,-2.9998,-3.0139,-3.0151,0,0,0,-2.9643,-2.9676,-2.9702,-2.9744,-2.9779,-2.981,-2.9838,-2.9854,-2.9912,-2.9841,-2.997,-2.9978,-3.0003,-3.0021,-3.0031,-3.0052,-2.9917,-2.9917,-2.9917,-2.9755,-2.9761,-2.9837,-2.9855,-2.9896,-2.9924,-2.9957,-2.9983,-2.9977,-3.0008,-3.0027,-3.0112,-3.0133,-3.014,-3.0162,-3.0049,-3.0049,-3.0049,-3.0049,-2.9876,-2.9923,-2.9915,-2.9985,-2.9991,-3.0051,-3.0081,-3.0075,-3.013,-3.0098,-3.012,-3.0083,-3.0154,-3.0173,-3.0052,-3.0051,-3.0051,-3.0051,-3.005,-2.9949,-2.9972,-2.9991,-3.0053,-3.0099,-3.0114,-3.0168,-3.0172,-3.0175,-3.0197,-3.0218,-3.0217,-3.0216,-3.0207,-3.0208,-3.0208,-3.0208,-3.0208,-3.0209,-3.0016,-3.0036,-3.0081,-3.0125,-3.0152,-3.0189,-3.0219,-3.0246,-3.0276,-3.0274,-3.0274,-3.0264,-3.016,-3.0133,-3.0213,-3.0212,-3.0212,-3.0211,-3.0211,-3.0134,-3.0108,-3.0178,-3.0205,-3.0256,-3.0302,-3.0307,-3.0361,-3.0383,-3.0409,-3.0395,-3.0319,-3.0312,-3.0304,-3.0281,-3.0395,-3.0395,-3.0395,-3.0395,-3.0194,-3.0192,-3.0264,-3.0308,-3.0351,-3.0362,-3.044,-3.0464,-3.0484,-3.0499,-3.0483,-3.0454,-3.0446,-3.0444,-3.0433,-3.0412,-3.0556,-3.0556,-3.0556,-3.0266,-3.0269,-3.0334,-3.0355,-3.0395,-3.043,-3.0502,-3.0552,-3.057,-3.0563,-3.0509,-3.0503,-3.0456,-3.0441,-3.043,-3.0413,-3.0374,0,0]},{"header":{"parameterUnit":"m.s-1","parameterCategory":1,"la1":30.2992,"la2":30.254,"lo1":-89.0895,"lo2":-89.0443,"dy":0.0025,"dx":0.0025,"nx":19,"ny":19,"refTime":"2026-04-22T09:00:00:Z","depth":0,"parameterNumber":3,"parameterNumberName":"V-component_of_WINDS"},"data":[0,0,0,4.2897,4.2896,4.2853,4.2852,4.2825,4.2825,0,0,0,0,0,0,0,0,0,0,0,4.2927,4.2928,4.2897,4.2896,4.2853,4.2852,4.2825,4.2825,0,0,0,0,0,0,0,0,0,0,0,4.2927,4.2928,4.2928,4.2896,4.2853,4.2852,4.2825,4.2847,0,0,0,0,0,0,0,0,0,0,4.2885,4.2931,4.2927,4.2928,4.2896,4.2853,4.2852,4.2848,4.2846,4.2857,0,4.2872,0,4.2848,4.2825,4.2825,0,0,0,4.2882,4.2932,4.2905,4.2928,4.2896,4.2853,4.2868,4.2846,4.2844,4.2854,4.2871,4.287,4.2848,4.2825,4.2825,4.2936,4.2938,0,0,4.2885,4.2929,4.2907,4.2904,4.2914,4.287,4.2867,4.2845,4.2866,4.2871,4.2868,4.2848,4.2825,4.2825,4.2935,4.2937,0,0,0,4.2901,4.2931,4.2903,4.2906,4.2896,4.2869,4.2866,4.2867,4.2854,4.2868,4.2847,4.2825,4.2825,4.2934,4.2936,4.3037,0,0,0,4.2902,4.294,4.2905,4.2932,4.2897,4.2881,4.2889,4.2856,4.2852,4.2847,4.2825,4.2825,4.2933,4.2935,4.3031,4.3076,0,0,0,4.2924,4.2943,4.2943,4.2934,4.2917,4.288,4.2866,4.2854,4.284,4.2825,4.2825,4.2932,4.2935,4.3026,4.3068,4.3119,0,0,0,4.296,4.3032,4.2945,4.3017,4.2918,4.2944,4.2866,4.2882,4.2882,4.2825,4.2933,4.2936,4.3024,4.3063,4.3114,4.3169,4.3197,0,0,4.3075,4.3047,4.3086,4.3007,4.306,4.2947,4.3014,4.2971,4.2929,4.2936,4.2938,4.3033,4.3067,4.3118,4.3336,4.3358,0,0,0,4.3138,4.3166,4.3171,4.3173,4.3143,4.3121,4.3063,4.3048,4.3052,4.2942,4.3064,4.3083,4.3111,4.3135,4.3154,4.3174,4.2949,4.2949,4.2948,4.3363,4.3306,4.3367,4.3306,4.3309,4.325,4.3247,4.3215,4.3156,4.3186,4.3188,4.3327,4.3358,4.3371,4.3394,4.3213,4.3213,4.3214,4.3214,4.3526,4.3557,4.3479,4.351,4.345,4.3474,4.3421,4.3378,4.3392,4.3321,4.3342,4.3269,4.3398,4.3414,4.3221,4.322,4.3219,4.3218,4.3218,4.3666,4.3671,4.3652,4.365,4.3656,4.3591,4.3609,4.3553,4.35,4.3521,4.3517,4.3515,4.3506,4.3524,4.3524,4.3524,4.3525,4.3525,4.3526,4.3819,4.3794,4.3816,4.3792,4.3787,4.3773,4.3716,4.3708,4.3686,4.3644,4.3643,4.3582,4.3421,4.3382,4.3533,4.3531,4.3531,4.353,4.3529,4.4004,4.3954,4.3988,4.3983,4.3951,4.396,4.3889,4.388,4.3866,4.3876,4.381,4.3701,4.3668,4.3652,4.3619,4.3823,4.3823,4.3823,4.3823,4.4122,4.4101,4.4124,4.412,4.4109,4.405,4.409,4.4047,4.3994,4.3982,4.3944,4.3896,4.3883,4.3857,4.3837,4.3805,4.4052,4.4052,4.4052,4.4232,4.4208,4.4253,4.4202,4.4173,4.4149,4.4186,4.4184,4.4112,4.406,4.3971,4.3961,4.3882,4.386,4.3804,4.3775,4.3715,0,0]}]]